Location: Balagbag Mahabang Kahoy
(14.1562°N, 120.9200°E)
Time: 04:57:00
(UTC+00:00)

Cosmos 1408 Rocket - Pass Details

Date: 16 January 2026
Orbit: 594 x 623 km, 82.6° (Epoch: 14 February)

Event Time Altitude Azimuth Distance (km) Brightness Sun altitude
Rises 20:53:51 0° 185° (S) 2,877 7.1 -21.6°
Reaches altitude 10° 20:56:05 10° 186° (S) 1,968 6.3 -21.1°
Maximum altitude 21:00:26 83° 272° (W) 618 3.4 -20.1°
Drops below altitude 10° 21:04:46 10° 2° (N) 1,952 6.0 -19.1°
Sets 21:06:58 0° 3° (N) 2,851 6.8 -18.6°
